ATLAS 5 CENTAUR DEB, 46665

Orbit data source: Space-Track

ATLAS 5 CENTAUR DEB, 46665 is space debris in HEO originally from a launch on Wed, 17 Oct 2018 UTC launched from the Air Force Eastern Test Range (AFETR). Debris objects in space refer to the collection of defunct objects orbiting the Earth. Examples of debris include non-operational satellites, rocket bodies, and fragments generated from explosions, collisions, or faulty payload assembly.

Loading next visibility...
Identifier
46665, 2018-079CT
Orbit
HEO
Country
Flag of USUS
Related business
Flag of USUnited Launch Alliance/Lockheed Martin (US)
Manufacturer
ULA Decatur
Mission
Spacecraft
Bus & Motor
Unknown
Mass
Unknown
Launch date (UTC)
2018-10-17 (8 years ago)
Launch vehicle
Unknown
Launch site
Air Force Eastern Test Range (AFETR)
Object type
Payload
Rocket body
Debris
Shape & HBR
Unknown shape, 1.1 m
Radar Cross Section
Small (<0.1 m²)

Expand to show TLE details & history
Last TLE update: 1 week ago

TLE from 1 week ago
0 ATLAS 5 CENTAUR DEB
1 46665U 18079CT  26164.35465124 -.00000105  00000-0  00000-0 0  9998
2 46665  13.4363  59.9068 4562468 254.3229  52.1176  1.71521143 35575
Epoch: 2026-06-13T08:30Z
TLE epoch observation values (Epoch: 2026-06-13T08:30:41.867Z)
Latitude
0.00003°
Longitude
30.48649°
Altitude
20,277.757 km
Speed
4.048 km/s
True Right ascension
03h 59m 19s
True Declination
0° 00' 00"
Sunlit
Object was in daylight at epoch
Visualization orbit readout
Latitude
Unknown
Longitude
Unknown
Altitude
Unknown
Speed
Unknown
Apparent Right ascension
Unknown
Apparent Declination
Unknown
Sunlit
N/A
Visualization observer readout
Local Sidereal Time
21:37:58
Azimuth
Unknown
Elevation
Unknown
Doppler factor
Unknown
Orbital elements
Apogee altitude
36,554.479 km
Perigee altitude
9,652.626 km
Semi-major axis
29,481.69 km
Eccentricity
0.45625
Inclination
13.4363°
RAAN
59.9068°
Arg. of periapsis
254.3229°
True anomaly
105.58335°
Mean anomaly
52.1176°
Eccentric anomaly
77.65409°
Mean motion
0.42876 °/min
Orbital period
839.63 mins
BSTAR
0
Loading maneuver chart data...
Computing Atmospheric mass density...

Documentation

Showing up to 5 results
|